{"data":{"norad_id":54118,"intl_designator":"2022-138F","name":"ONEWEB-0500","alt_names":[],"object_type":"PAYLOAD","status":"ACTIVE","operator":null,"country":"UK","launch_date":"2022-10-22","launch_site_code":"SRILR","launch_vehicle":null,"mission":null,"orbit_class":"UNKNOWN","rcs_meters":null,"size_class":null,"mass_kg":null,"dimensions":null,"purposes":["comms"],"wikipedia_slug":null,"has_3d_model":false,"image_url":null,"decayed_at":null,"tle_current":{"epoch":"2026-05-25T03:55:41.552832Z","epoch_age_seconds":64915,"freshness":"FRESH","line1":"1 54118U 22138F   26145.16367538  .00000090  00000+0  19146-3 0  9994","line2":"2 54118  87.9159 309.5543 0001785  96.2459 263.8877 13.19727150173799","mean_motion":13.1972715,"eccentricity":0.0001785,"inclination_deg":87.9159,"raan_deg":309.5543,"arg_perigee_deg":96.2459,"mean_anomaly_deg":263.8877,"bstar":0.00019146,"rev_number":17379,"period_min":109.11346333975,"perigee_km":1184.4121809319,"apogee_km":1187.1124929951,"semimajor_km":7563.8993369635,"source":"CELESTRAK","updated_at":"2026-05-25T13:38:22.585174Z"}}}